Year,Month,Day,Hour,Minute,Value (Times are PST for temperature in C)
2007,08,10,00,00,10.30
2007,08,10,00,01,10.30
2007,08,10,00,02,10.30
2007,08,10,00,03,10.30
2007,08,10,00,04,10.30
2007,08,10,00,05,10.30
2007,08,10,00,06,10.30
2007,08,10,00,07,10.30
2007,08,10,00,08,10.30
2007,08,10,00,09,10.30
2007,08,10,00,10,10.30
2007,08,10,00,11,10.30
2007,08,10,00,12,10.40
2007,08,10,00,13,10.40
2007,08,10,00,14,10.40
2007,08,10,00,15,10.40
2007,08,10,00,16,10.40
2007,08,10,00,17,10.50
2007,08,10,00,18,10.50
2007,08,10,00,19,10.50
2007,08,10,00,20,10.50
2007,08,10,00,21,10.50
2007,08,10,00,22,10.60
2007,08,10,00,23,10.60
2007,08,10,00,24,10.60
2007,08,10,00,25,10.60
2007,08,10,00,26,10.60
2007,08,10,00,27,10.60
2007,08,10,00,28,10.60
2007,08,10,00,29,10.60
2007,08,10,00,30,10.60
2007,08,10,00,31,10.60
2007,08,10,00,32,10.60
2007,08,10,00,33,10.60
2007,08,10,00,34,10.60
2007,08,10,00,35,10.60
2007,08,10,00,36,10.60
2007,08,10,00,37,10.60
2007,08,10,00,38,10.60
2007,08,10,00,39,10.60
2007,08,10,00,40,10.60
2007,08,10,00,41,10.60
2007,08,10,00,42,10.60
2007,08,10,00,43,10.60
2007,08,10,00,44,10.60
2007,08,10,00,45,10.60
2007,08,10,00,46,10.60
2007,08,10,00,47,10.60
2007,08,10,00,48,10.60
2007,08,10,00,49,10.60
2007,08,10,00,50,10.60
2007,08,10,00,51,10.60
2007,08,10,00,52,10.60
2007,08,10,00,53,10.60
2007,08,10,00,54,10.60
2007,08,10,00,55,10.60
2007,08,10,00,56,10.60
2007,08,10,00,57,10.60
2007,08,10,00,58,10.60
2007,08,10,00,59,10.60
2007,08,10,01,00,10.60
2007,08,10,01,01,10.50
2007,08,10,01,02,10.50
2007,08,10,01,03,10.50
2007,08,10,01,04,10.50
2007,08,10,01,05,10.50
2007,08,10,01,06,10.40
2007,08,10,01,07,10.40
2007,08,10,01,08,10.40
2007,08,10,01,09,10.40
2007,08,10,01,10,10.40
2007,08,10,01,11,10.40
2007,08,10,01,12,10.40
2007,08,10,01,13,10.40
2007,08,10,01,14,10.40
2007,08,10,01,15,10.40
2007,08,10,01,16,10.30
2007,08,10,01,17,10.30
2007,08,10,01,18,10.30
2007,08,10,01,19,10.30
2007,08,10,01,20,10.30
2007,08,10,01,21,10.30
2007,08,10,01,22,10.30
2007,08,10,01,23,10.30
2007,08,10,01,24,10.20
2007,08,10,01,25,10.20
2007,08,10,01,26,10.20
2007,08,10,01,27,10.20
2007,08,10,01,28,10.20
2007,08,10,01,29,10.20
2007,08,10,01,30,10.20
2007,08,10,01,31,10.20
2007,08,10,01,32,10.20
2007,08,10,01,33,10.20
2007,08,10,01,34,10.20
2007,08,10,01,35,10.20
2007,08,10,01,36,10.20
2007,08,10,01,37,10.20
2007,08,10,01,38,10.20
2007,08,10,01,39,10.20
2007,08,10,01,40,10.20
2007,08,10,01,41,10.20
2007,08,10,01,42,10.20
2007,08,10,01,43,10.20
2007,08,10,01,44,10.20
2007,08,10,01,45,10.20
2007,08,10,01,46,10.20
2007,08,10,01,47,10.20
2007,08,10,01,48,10.20
2007,08,10,01,49,10.20
2007,08,10,01,50,10.20
2007,08,10,01,51,10.20
2007,08,10,01,52,10.20
2007,08,10,01,53,10.20
2007,08,10,01,54,10.20
2007,08,10,01,55,10.20
2007,08,10,01,56,10.20
2007,08,10,01,57,10.20
2007,08,10,01,58,10.20
2007,08,10,01,59,10.20
2007,08,10,02,00,10.20
2007,08,10,02,01,10.20
2007,08,10,02,02,10.10
2007,08,10,02,03,10.10
2007,08,10,02,04,10.10
2007,08,10,02,05,10.10
2007,08,10,02,06,10.00
2007,08,10,02,07,10.00
2007,08,10,02,08,10.00
2007,08,10,02,09,10.00
2007,08,10,02,10,9.90
2007,08,10,02,11,9.90
2007,08,10,02,12,9.90
2007,08,10,02,13,9.90
2007,08,10,02,14,9.90
2007,08,10,02,15,9.90
2007,08,10,02,16,9.90
2007,08,10,02,17,9.90
2007,08,10,02,18,9.90
2007,08,10,02,19,9.90
2007,08,10,02,20,9.90
2007,08,10,02,21,9.90
2007,08,10,02,22,9.90
2007,08,10,02,23,10.00
2007,08,10,02,24,10.00
2007,08,10,02,25,10.00
2007,08,10,02,26,10.00
2007,08,10,02,27,10.00
2007,08,10,02,28,10.00
2007,08,10,02,29,10.00
2007,08,10,02,30,10.00
2007,08,10,02,31,10.00
2007,08,10,02,32,10.00
2007,08,10,02,33,10.00
2007,08,10,02,34,10.00
2007,08,10,02,35,10.00
2007,08,10,02,36,10.00
2007,08,10,02,37,10.00
2007,08,10,02,38,10.00
2007,08,10,02,39,10.00
2007,08,10,02,40,10.00
2007,08,10,02,41,10.00
2007,08,10,02,42,10.00
2007,08,10,02,43,10.00
2007,08,10,02,44,10.00
2007,08,10,02,45,10.00
2007,08,10,02,46,10.00
2007,08,10,02,47,10.00
2007,08,10,02,48,10.00
2007,08,10,02,49,10.00
2007,08,10,02,50,10.00
2007,08,10,02,51,10.00
2007,08,10,02,52,10.00
2007,08,10,02,53,10.00
2007,08,10,02,54,10.00
2007,08,10,02,55,10.00
2007,08,10,02,56,10.00
2007,08,10,02,57,10.00
2007,08,10,02,58,10.00
2007,08,10,02,59,10.00
2007,08,10,03,00,10.00
2007,08,10,03,01,9.90
2007,08,10,03,02,9.90
2007,08,10,03,03,9.90
2007,08,10,03,04,9.90
2007,08,10,03,05,9.90
2007,08,10,03,06,9.90
2007,08,10,03,07,9.80
2007,08,10,03,08,9.80
2007,08,10,03,09,9.80
2007,08,10,03,10,9.80
2007,08,10,03,11,9.80
2007,08,10,03,12,9.80
2007,08,10,03,13,9.80
2007,08,10,03,14,9.80
2007,08,10,03,15,9.80
2007,08,10,03,16,9.80
2007,08,10,03,17,9.80
2007,08,10,03,18,9.80
2007,08,10,03,19,9.80
2007,08,10,03,20,9.80
2007,08,10,03,21,9.90
2007,08,10,03,22,9.90
2007,08,10,03,23,9.90
2007,08,10,03,24,9.90
2007,08,10,03,25,9.90
2007,08,10,03,26,9.90
2007,08,10,03,27,9.90
2007,08,10,03,28,9.90
2007,08,10,03,29,9.90
2007,08,10,03,30,9.90
2007,08,10,03,31,9.90
2007,08,10,03,32,9.90
2007,08,10,03,33,9.90
2007,08,10,03,34,9.90
2007,08,10,03,35,9.90
2007,08,10,03,36,9.90
2007,08,10,03,37,9.90
2007,08,10,03,38,9.90
2007,08,10,03,39,9.90
2007,08,10,03,40,9.90
2007,08,10,03,41,9.90
2007,08,10,03,42,9.90
2007,08,10,03,43,9.90
2007,08,10,03,44,9.90
2007,08,10,03,45,9.90
2007,08,10,03,46,9.90
2007,08,10,03,47,9.90
2007,08,10,03,48,9.90
2007,08,10,03,49,9.90
2007,08,10,03,50,9.90
2007,08,10,03,51,9.90
2007,08,10,03,52,9.90
2007,08,10,03,53,9.90
2007,08,10,03,54,9.90
2007,08,10,03,55,9.90
2007,08,10,03,56,9.90
2007,08,10,03,57,9.90
2007,08,10,03,58,9.90
2007,08,10,03,59,9.90
2007,08,10,04,00,9.90
2007,08,10,04,01,9.90
2007,08,10,04,02,9.90
2007,08,10,04,03,9.90
2007,08,10,04,04,9.90
2007,08,10,04,05,9.90
2007,08,10,04,06,9.90
2007,08,10,04,07,9.90
2007,08,10,04,08,9.90
2007,08,10,04,09,9.90
2007,08,10,04,10,9.90
2007,08,10,04,11,9.90
2007,08,10,04,12,9.90
2007,08,10,04,13,9.80
2007,08,10,04,14,9.80
2007,08,10,04,15,9.80
2007,08,10,04,16,9.80
2007,08,10,04,17,9.80
2007,08,10,04,18,9.80
2007,08,10,04,19,9.80
2007,08,10,04,20,9.80
2007,08,10,04,21,9.80
2007,08,10,04,22,9.80
2007,08,10,04,23,9.80
2007,08,10,04,24,9.80
2007,08,10,04,25,9.80
2007,08,10,04,26,9.70
2007,08,10,04,27,9.70
2007,08,10,04,28,9.70
2007,08,10,04,29,9.70
2007,08,10,04,30,9.70
2007,08,10,04,31,9.70
2007,08,10,04,32,9.70
2007,08,10,04,33,9.70
2007,08,10,04,34,9.70
2007,08,10,04,35,9.70
2007,08,10,04,36,9.70
2007,08,10,04,37,9.70
2007,08,10,04,38,9.60
2007,08,10,04,39,9.60
2007,08,10,04,40,9.60
2007,08,10,04,41,9.60
2007,08,10,04,42,9.60
2007,08,10,04,43,9.50
2007,08,10,04,44,9.50
2007,08,10,04,45,9.50
2007,08,10,04,46,9.40
2007,08,10,04,47,9.40
2007,08,10,04,48,9.40
2007,08,10,04,49,9.40
2007,08,10,04,50,9.40
2007,08,10,04,51,9.40
2007,08,10,04,52,9.40
2007,08,10,04,53,9.50
2007,08,10,04,54,9.50
2007,08,10,04,55,9.50
2007,08,10,04,56,9.50
2007,08,10,04,57,9.50
2007,08,10,04,58,9.50
2007,08,10,04,59,9.60
2007,08,10,05,00,9.50
2007,08,10,05,01,9.50
2007,08,10,05,02,9.50
2007,08,10,05,03,9.50
2007,08,10,05,04,9.50
2007,08,10,05,05,9.50
2007,08,10,05,06,9.50
2007,08,10,05,07,9.50
2007,08,10,05,08,9.50
2007,08,10,05,09,9.50
2007,08,10,05,10,9.50
2007,08,10,05,11,9.50
2007,08,10,05,12,9.50
2007,08,10,05,13,9.50
2007,08,10,05,14,9.40
2007,08,10,05,15,9.50
2007,08,10,05,16,9.40
2007,08,10,05,17,9.40
2007,08,10,05,18,9.40
2007,08,10,05,19,9.40
2007,08,10,05,20,9.40
2007,08,10,05,21,9.40
2007,08,10,05,22,9.40
2007,08,10,05,23,9.40
2007,08,10,05,24,9.40
2007,08,10,05,25,9.40
2007,08,10,05,26,9.40
2007,08,10,05,27,9.30
2007,08,10,05,28,9.30
2007,08,10,05,29,9.30
2007,08,10,05,30,9.40
2007,08,10,05,31,9.40
2007,08,10,05,32,9.40
2007,08,10,05,33,9.40
2007,08,10,05,34,9.40
2007,08,10,05,35,9.40
2007,08,10,05,36,9.40
2007,08,10,05,37,9.40
2007,08,10,05,38,9.40
2007,08,10,05,39,9.40
2007,08,10,05,40,9.30
2007,08,10,05,41,9.30
2007,08,10,05,42,9.30
2007,08,10,05,43,9.30
2007,08,10,05,44,9.30
2007,08,10,05,45,9.30
2007,08,10,05,46,9.30
2007,08,10,05,47,9.30
2007,08,10,05,48,9.30
2007,08,10,05,49,9.30
2007,08,10,05,50,9.30
2007,08,10,05,51,9.20
2007,08,10,05,52,9.20
2007,08,10,05,53,9.20
2007,08,10,05,54,9.20
2007,08,10,05,55,9.20
2007,08,10,05,56,9.20
2007,08,10,05,57,9.20
2007,08,10,05,58,9.20
2007,08,10,05,59,9.10
2007,08,10,06,00,9.10
2007,08,10,06,01,9.10
2007,08,10,06,02,9.10
2007,08,10,06,03,9.10
2007,08,10,06,04,9.10
2007,08,10,06,05,9.10
2007,08,10,06,06,9.10
2007,08,10,06,07,9.20
2007,08,10,06,08,9.20
2007,08,10,06,09,9.20
2007,08,10,06,10,9.20
2007,08,10,06,11,9.20
2007,08,10,06,12,9.20
2007,08,10,06,13,9.10
2007,08,10,06,14,9.10
2007,08,10,06,15,9.10
2007,08,10,06,16,9.10
2007,08,10,06,17,9.10
2007,08,10,06,18,9.10
2007,08,10,06,19,9.10
2007,08,10,06,20,9.10
2007,08,10,06,21,9.10
2007,08,10,06,22,9.10
2007,08,10,06,23,9.10
2007,08,10,06,24,9.10
2007,08,10,06,25,9.10
2007,08,10,06,26,9.10
2007,08,10,06,27,9.10
2007,08,10,06,28,9.10
2007,08,10,06,29,9.00
2007,08,10,06,30,9.00
2007,08,10,06,31,9.00
2007,08,10,06,32,9.00
2007,08,10,06,33,9.00
2007,08,10,06,34,9.00
2007,08,10,06,35,9.00
2007,08,10,06,36,9.00
2007,08,10,06,37,8.90
2007,08,10,06,38,8.90
2007,08,10,06,39,8.90
2007,08,10,06,40,8.90
2007,08,10,06,41,8.90
2007,08,10,06,42,8.90
2007,08,10,06,43,8.90
2007,08,10,06,44,9.00
2007,08,10,06,45,9.00
2007,08,10,06,46,9.00
2007,08,10,06,47,9.00
2007,08,10,06,48,9.10
2007,08,10,06,49,9.10
2007,08,10,06,50,9.10
2007,08,10,06,51,9.10
2007,08,10,06,52,9.20
2007,08,10,06,53,9.20
2007,08,10,06,54,9.20
2007,08,10,06,55,9.20
2007,08,10,06,56,9.20
2007,08,10,06,57,9.20
2007,08,10,06,58,9.20
2007,08,10,06,59,9.20
2007,08,10,07,00,9.20
2007,08,10,07,01,9.20
2007,08,10,07,02,9.20
2007,08,10,07,03,9.20
2007,08,10,07,04,9.30
2007,08,10,07,05,9.30
2007,08,10,07,06,9.30
2007,08,10,07,07,9.30
2007,08,10,07,08,9.40
2007,08,10,07,09,9.40
2007,08,10,07,10,9.50
2007,08,10,07,11,9.50
2007,08,10,07,12,9.50
2007,08,10,07,13,9.60
2007,08,10,07,14,9.60
2007,08,10,07,15,9.60
2007,08,10,07,16,9.60
2007,08,10,07,17,9.60
2007,08,10,07,18,9.70
2007,08,10,07,19,9.70
2007,08,10,07,20,9.70
2007,08,10,07,21,9.70
2007,08,10,07,22,9.80
2007,08,10,07,23,9.80
2007,08,10,07,24,9.90
2007,08,10,07,25,9.90
2007,08,10,07,26,10.00
2007,08,10,07,27,10.10
2007,08,10,07,28,10.10
2007,08,10,07,29,10.10
2007,08,10,07,30,10.20
2007,08,10,07,31,10.20
2007,08,10,07,32,10.20
2007,08,10,07,33,10.20
2007,08,10,07,34,10.20
2007,08,10,07,35,10.30
2007,08,10,07,36,10.30
2007,08,10,07,37,10.30
2007,08,10,07,38,10.30
2007,08,10,07,39,10.30
2007,08,10,07,40,10.30
2007,08,10,07,41,10.30
2007,08,10,07,42,10.30
2007,08,10,07,43,10.30
2007,08,10,07,44,10.30
2007,08,10,07,45,10.30
2007,08,10,07,46,10.30
2007,08,10,07,47,10.30
2007,08,10,07,48,10.30
2007,08,10,07,49,10.30
2007,08,10,07,50,10.30
2007,08,10,07,51,10.30
2007,08,10,07,52,10.30
2007,08,10,07,53,10.40
2007,08,10,07,54,10.40
2007,08,10,07,55,10.40
2007,08,10,07,56,10.40
2007,08,10,07,57,10.40
2007,08,10,07,58,10.50
2007,08,10,07,59,10.50
2007,08,10,08,00,10.50
2007,08,10,08,01,10.50
2007,08,10,08,02,10.60
2007,08,10,08,03,10.60
2007,08,10,08,04,10.60
2007,08,10,08,05,10.60
2007,08,10,08,06,10.50
2007,08,10,08,07,10.50
2007,08,10,08,08,10.50
2007,08,10,08,09,10.50
2007,08,10,08,10,10.40
2007,08,10,08,11,10.40
2007,08,10,08,12,10.50
2007,08,10,08,13,10.50
2007,08,10,08,14,10.60
2007,08,10,08,15,10.50
2007,08,10,08,16,10.60
2007,08,10,08,17,10.60
2007,08,10,08,18,10.50
2007,08,10,08,19,10.50
2007,08,10,08,20,10.60
2007,08,10,08,21,10.60
2007,08,10,08,22,10.60
2007,08,10,08,23,10.60
2007,08,10,08,24,10.60
2007,08,10,08,25,10.60
2007,08,10,08,26,10.60
2007,08,10,08,27,10.60
2007,08,10,08,28,10.70
2007,08,10,08,29,10.70
2007,08,10,08,30,10.70
2007,08,10,08,31,10.70
2007,08,10,08,32,10.70
2007,08,10,08,33,10.70
2007,08,10,08,34,10.80
2007,08,10,08,35,10.80
2007,08,10,08,36,10.80
2007,08,10,08,37,10.90
2007,08,10,08,38,10.90
2007,08,10,08,39,11.00
2007,08,10,08,40,11.00
2007,08,10,08,41,11.00
2007,08,10,08,42,11.00
2007,08,10,08,43,11.00
2007,08,10,08,44,11.00
2007,08,10,08,45,11.00
2007,08,10,08,46,11.00
2007,08,10,08,47,11.00
2007,08,10,08,48,11.00
2007,08,10,08,49,11.10
2007,08,10,08,50,11.10
2007,08,10,08,51,11.10
2007,08,10,08,52,11.10
2007,08,10,08,53,11.10
2007,08,10,08,54,11.10
2007,08,10,08,55,11.10
2007,08,10,08,56,11.20
2007,08,10,08,57,11.20
2007,08,10,08,58,11.30
2007,08,10,08,59,11.30
2007,08,10,09,00,11.30
2007,08,10,09,01,11.30
2007,08,10,09,02,11.30
2007,08,10,09,03,11.40
2007,08,10,09,04,11.50
2007,08,10,09,05,11.50
2007,08,10,09,06,11.50
2007,08,10,09,07,11.60
2007,08,10,09,08,11.60
2007,08,10,09,09,11.60
2007,08,10,09,10,11.70
2007,08,10,09,11,11.70
2007,08,10,09,12,11.70
2007,08,10,09,13,11.80
2007,08,10,09,14,11.80
2007,08,10,09,15,11.80
2007,08,10,09,16,11.80
2007,08,10,09,17,11.90
2007,08,10,09,18,11.90
2007,08,10,09,19,11.90
2007,08,10,09,20,12.00
2007,08,10,09,21,12.00
2007,08,10,09,22,12.10
2007,08,10,09,23,12.10
2007,08,10,09,24,12.20
2007,08,10,09,25,12.20
2007,08,10,09,26,12.20
2007,08,10,09,27,12.20
2007,08,10,09,28,12.30
2007,08,10,09,29,12.30
2007,08,10,09,30,12.40
2007,08,10,09,31,12.40
2007,08,10,09,32,12.40
2007,08,10,09,33,12.50
2007,08,10,09,34,12.60
2007,08,10,09,35,12.60
2007,08,10,09,36,12.60
2007,08,10,09,37,12.70
2007,08,10,09,38,12.70
2007,08,10,09,39,12.80
2007,08,10,09,40,12.80
2007,08,10,09,41,12.90
2007,08,10,09,42,12.90
2007,08,10,09,43,13.00
2007,08,10,09,44,13.10
2007,08,10,09,45,13.20
2007,08,10,09,46,13.20
2007,08,10,09,47,13.30
2007,08,10,09,48,13.40
2007,08,10,09,49,13.50
2007,08,10,09,50,13.70
2007,08,10,09,51,13.80
2007,08,10,09,52,13.90
2007,08,10,09,53,14.00
2007,08,10,09,54,14.10
2007,08,10,09,55,14.20
2007,08,10,09,56,14.20
2007,08,10,09,57,14.20
2007,08,10,09,58,14.30
2007,08,10,09,59,14.30
2007,08,10,10,00,14.40
2007,08,10,10,01,14.40
2007,08,10,10,02,14.40
2007,08,10,10,03,14.40
2007,08,10,10,04,14.40
2007,08,10,10,05,14.40
2007,08,10,10,06,14.50
2007,08,10,10,07,14.50
2007,08,10,10,08,14.50
2007,08,10,10,09,14.50
2007,08,10,10,10,14.50
2007,08,10,10,11,14.60
2007,08,10,10,12,14.60
2007,08,10,10,13,14.60
2007,08,10,10,14,14.70
2007,08,10,10,15,14.70
2007,08,10,10,16,14.70
2007,08,10,10,17,14.80
2007,08,10,10,18,14.80
2007,08,10,10,19,14.80
2007,08,10,10,20,14.90
2007,08,10,10,21,14.90
2007,08,10,10,22,15.00
2007,08,10,10,23,15.00
2007,08,10,10,24,15.00
2007,08,10,10,25,15.00
2007,08,10,10,26,15.00
2007,08,10,10,27,15.10
2007,08,10,10,28,15.20
2007,08,10,10,29,15.30
2007,08,10,10,30,15.40
2007,08,10,10,31,15.40
2007,08,10,10,32,15.50
2007,08,10,10,33,15.60
2007,08,10,10,34,15.70
2007,08,10,10,35,15.80
2007,08,10,10,36,15.80
2007,08,10,10,37,15.90
2007,08,10,10,38,16.00
2007,08,10,10,39,16.10
2007,08,10,10,40,16.10
2007,08,10,10,41,16.10
2007,08,10,10,42,16.20
2007,08,10,10,43,16.20
2007,08,10,10,44,16.20
2007,08,10,10,45,16.20
2007,08,10,10,46,16.30
2007,08,10,10,47,16.30
2007,08,10,10,48,16.40
2007,08,10,10,49,16.40
2007,08,10,10,50,16.40
2007,08,10,10,51,16.40
2007,08,10,10,52,16.40
2007,08,10,10,53,16.40
2007,08,10,10,54,16.40
2007,08,10,10,55,16.30
2007,08,10,10,56,16.20
2007,08,10,10,57,16.10
2007,08,10,10,58,16.00
2007,08,10,10,59,16.00
2007,08,10,11,00,15.90
2007,08,10,11,01,15.90
2007,08,10,11,02,15.90
2007,08,10,11,03,15.80
2007,08,10,11,04,15.80
2007,08,10,11,05,15.80
2007,08,10,11,06,15.80
2007,08,10,11,07,15.80
2007,08,10,11,08,15.80
2007,08,10,11,09,15.80
2007,08,10,11,10,15.80
2007,08,10,11,11,15.90
2007,08,10,11,12,16.00
2007,08,10,11,13,16.10
2007,08,10,11,14,16.10
2007,08,10,11,15,16.20
2007,08,10,11,16,16.30
2007,08,10,11,17,16.30
2007,08,10,11,18,16.40
2007,08,10,11,19,16.40
2007,08,10,11,20,16.40
2007,08,10,11,21,16.40
2007,08,10,11,22,16.40
2007,08,10,11,23,16.40
2007,08,10,11,24,16.30
2007,08,10,11,25,16.40
2007,08,10,11,26,16.40
2007,08,10,11,27,16.40
2007,08,10,11,28,16.50
2007,08,10,11,29,16.60
2007,08,10,11,30,16.70
2007,08,10,11,31,16.80
2007,08,10,11,32,16.90
2007,08,10,11,33,17.00
2007,08,10,11,34,17.10
2007,08,10,11,35,17.30
2007,08,10,11,36,17.30
2007,08,10,11,37,17.40
2007,08,10,11,38,17.40
2007,08,10,11,39,17.40
2007,08,10,11,40,17.30
2007,08,10,11,41,17.20
2007,08,10,11,42,17.10
2007,08,10,11,43,17.10
2007,08,10,11,44,17.10
2007,08,10,11,45,17.10
2007,08,10,11,46,17.10
2007,08,10,11,47,17.10
2007,08,10,11,48,17.20
2007,08,10,11,49,17.20
2007,08,10,11,50,17.20
2007,08,10,11,51,17.20
2007,08,10,11,52,17.20
2007,08,10,11,53,17.10
2007,08,10,11,54,17.10
2007,08,10,11,55,17.10
2007,08,10,11,56,17.10
2007,08,10,11,57,17.20
2007,08,10,11,58,17.20
2007,08,10,11,59,17.20
2007,08,10,12,00,17.20
2007,08,10,12,01,17.30
2007,08,10,12,02,17.30
2007,08,10,12,03,17.20
2007,08,10,12,04,17.20
2007,08,10,12,05,17.20
2007,08,10,12,06,17.20
2007,08,10,12,07,17.30
2007,08,10,12,08,17.40
2007,08,10,12,09,17.40
2007,08,10,12,10,17.40
2007,08,10,12,11,17.40
2007,08,10,12,12,17.40
2007,08,10,12,13,17.40
2007,08,10,12,14,17.30
2007,08,10,12,15,17.30
2007,08,10,12,16,17.40
2007,08,10,12,17,17.40
2007,08,10,12,18,17.50
2007,08,10,12,19,17.60
2007,08,10,12,20,17.60
2007,08,10,12,21,17.60
2007,08,10,12,22,17.60
2007,08,10,12,23,17.70
2007,08,10,12,24,17.70
2007,08,10,12,25,17.80
2007,08,10,12,26,17.80
2007,08,10,12,27,17.80
2007,08,10,12,28,17.70
2007,08,10,12,29,17.70
2007,08,10,12,30,17.60
2007,08,10,12,31,17.40
2007,08,10,12,32,17.20
2007,08,10,12,33,17.10
2007,08,10,12,34,17.00
2007,08,10,12,35,16.90
2007,08,10,12,36,16.80
2007,08,10,12,37,16.80
2007,08,10,12,38,16.70
2007,08,10,12,39,16.70
2007,08,10,12,40,16.70
2007,08,10,12,41,16.60
2007,08,10,12,42,16.50
2007,08,10,12,43,16.50
2007,08,10,12,44,16.40
2007,08,10,12,45,16.40
2007,08,10,12,46,16.30
2007,08,10,12,47,16.30
2007,08,10,12,48,16.30
2007,08,10,12,49,16.20
2007,08,10,12,50,16.10
2007,08,10,12,51,16.10
2007,08,10,12,52,16.00
2007,08,10,12,53,16.00
2007,08,10,12,54,16.00
2007,08,10,12,55,16.00
2007,08,10,12,56,16.00
2007,08,10,12,57,16.00
2007,08,10,12,58,16.00
2007,08,10,12,59,16.00
2007,08,10,13,00,16.10
2007,08,10,13,01,16.10
2007,08,10,13,02,16.20
2007,08,10,13,03,16.20
2007,08,10,13,04,16.20
2007,08,10,13,05,16.30
2007,08,10,13,06,16.30
2007,08,10,13,07,16.30
2007,08,10,13,08,16.40
2007,08,10,13,09,16.40
2007,08,10,13,10,16.40
2007,08,10,13,11,16.40
2007,08,10,13,12,16.50
2007,08,10,13,13,16.50
2007,08,10,13,14,16.60
2007,08,10,13,15,16.70
2007,08,10,13,16,16.70
2007,08,10,13,17,16.70
2007,08,10,13,18,16.70
2007,08,10,13,19,16.70
2007,08,10,13,20,16.70
2007,08,10,13,21,16.60
2007,08,10,13,22,16.50
2007,08,10,13,23,16.40
2007,08,10,13,24,16.50
2007,08,10,13,25,16.50
2007,08,10,13,26,16.60
2007,08,10,13,27,16.70
2007,08,10,13,28,16.70
2007,08,10,13,29,16.70
2007,08,10,13,30,16.80
2007,08,10,13,31,16.80
2007,08,10,13,32,16.90
2007,08,10,13,33,17.00
2007,08,10,13,34,17.00
2007,08,10,13,35,17.00
2007,08,10,13,36,17.10
2007,08,10,13,37,17.20
2007,08,10,13,38,17.30
2007,08,10,13,39,17.40
2007,08,10,13,40,17.50
2007,08,10,13,41,17.50
2007,08,10,13,42,17.60
2007,08,10,13,43,17.60
2007,08,10,13,44,17.60
2007,08,10,13,45,17.70
2007,08,10,13,46,17.70
2007,08,10,13,47,17.70
2007,08,10,13,48,17.70
2007,08,10,13,49,17.70
2007,08,10,13,50,17.60
2007,08,10,13,51,17.50
2007,08,10,13,52,17.40
2007,08,10,13,53,17.20
2007,08,10,13,54,17.20
2007,08,10,13,55,17.20
2007,08,10,13,56,17.20
2007,08,10,13,57,17.10
2007,08,10,13,58,17.10
2007,08,10,13,59,17.10
2007,08,10,14,00,17.10
2007,08,10,14,01,17.10
2007,08,10,14,02,17.10
2007,08,10,14,03,17.10
2007,08,10,14,04,17.10
2007,08,10,14,05,17.10
2007,08,10,14,06,17.20
2007,08,10,14,07,17.20
2007,08,10,14,08,17.10
2007,08,10,14,09,17.10
2007,08,10,14,10,17.20
2007,08,10,14,11,17.30
2007,08,10,14,12,17.50
2007,08,10,14,13,17.50
2007,08,10,14,14,17.60
2007,08,10,14,15,17.70
2007,08,10,14,16,17.70
2007,08,10,14,17,17.70
2007,08,10,14,18,17.70
2007,08,10,14,19,17.70
2007,08,10,14,20,17.70
2007,08,10,14,21,17.80
2007,08,10,14,22,17.90
2007,08,10,14,23,17.90
2007,08,10,14,24,17.90
2007,08,10,14,25,17.90
2007,08,10,14,26,17.80
2007,08,10,14,27,17.60
2007,08,10,14,28,17.60
2007,08,10,14,29,17.50
2007,08,10,14,30,17.50
2007,08,10,14,31,17.50
2007,08,10,14,32,17.50
2007,08,10,14,33,17.60
2007,08,10,14,34,17.60
2007,08,10,14,35,17.60
2007,08,10,14,36,17.60
2007,08,10,14,37,17.60
2007,08,10,14,38,17.60
2007,08,10,14,39,17.50
2007,08,10,14,40,17.50
2007,08,10,14,41,17.40
2007,08,10,14,42,17.40
2007,08,10,14,43,17.40
2007,08,10,14,44,17.50
2007,08,10,14,45,17.50
2007,08,10,14,46,17.60
2007,08,10,14,47,17.60
2007,08,10,14,48,17.60
2007,08,10,14,49,17.50
2007,08,10,14,50,17.50
2007,08,10,14,51,17.50
2007,08,10,14,52,17.50
2007,08,10,14,53,17.60
2007,08,10,14,54,17.60
2007,08,10,14,55,17.70
2007,08,10,14,56,17.80
2007,08,10,14,57,17.80
2007,08,10,14,58,17.80
2007,08,10,14,59,17.70
2007,08,10,15,00,17.70
2007,08,10,15,01,17.70
2007,08,10,15,02,17.70
2007,08,10,15,03,17.70
2007,08,10,15,04,17.70
2007,08,10,15,05,17.80
2007,08,10,15,06,17.90
2007,08,10,15,07,18.00
2007,08,10,15,08,18.00
2007,08,10,15,09,18.10
2007,08,10,15,10,18.20
2007,08,10,15,11,18.30
2007,08,10,15,12,18.30
2007,08,10,15,13,18.30
2007,08,10,15,14,18.30
2007,08,10,15,15,18.20
2007,08,10,15,16,18.10
2007,08,10,15,17,18.10
2007,08,10,15,18,18.10
2007,08,10,15,19,18.20
2007,08,10,15,20,18.20
2007,08,10,15,21,18.20
2007,08,10,15,22,18.20
2007,08,10,15,23,18.30
2007,08,10,15,24,18.40
2007,08,10,15,25,18.40
2007,08,10,15,26,18.50
2007,08,10,15,27,18.50
2007,08,10,15,28,18.60
2007,08,10,15,29,18.70
2007,08,10,15,30,18.80
2007,08,10,15,31,18.80
2007,08,10,15,32,19.00
2007,08,10,15,33,19.00
2007,08,10,15,34,19.00
2007,08,10,15,35,19.00
2007,08,10,15,36,19.00
2007,08,10,15,37,19.10
2007,08,10,15,38,19.10
2007,08,10,15,39,19.00
2007,08,10,15,40,18.90
2007,08,10,15,41,18.80
2007,08,10,15,42,18.80
2007,08,10,15,43,18.80
2007,08,10,15,44,18.80
2007,08,10,15,45,18.80
2007,08,10,15,46,18.90
2007,08,10,15,47,19.00
2007,08,10,15,48,19.00
2007,08,10,15,49,19.10
2007,08,10,15,50,19.10
2007,08,10,15,51,19.10
2007,08,10,15,52,19.20
2007,08,10,15,53,19.20
2007,08,10,15,54,19.20
2007,08,10,15,55,19.20
2007,08,10,15,56,19.20
2007,08,10,15,57,19.10
2007,08,10,15,58,19.10
2007,08,10,15,59,19.00
2007,08,10,16,00,18.80
2007,08,10,16,01,18.80
2007,08,10,16,02,18.70
2007,08,10,16,03,18.60
2007,08,10,16,04,18.50
2007,08,10,16,05,18.40
2007,08,10,16,06,18.30
2007,08,10,16,07,18.30
2007,08,10,16,08,18.30
2007,08,10,16,09,18.40
2007,08,10,16,10,18.50
2007,08,10,16,11,18.50
2007,08,10,16,12,18.60
2007,08,10,16,13,18.50
2007,08,10,16,14,18.60
2007,08,10,16,15,18.60
2007,08,10,16,16,18.70
2007,08,10,16,17,18.70
2007,08,10,16,18,18.70
2007,08,10,16,19,18.70
2007,08,10,16,20,18.70
2007,08,10,16,21,18.70
2007,08,10,16,22,18.60
2007,08,10,16,23,18.70
2007,08,10,16,24,18.60
2007,08,10,16,25,18.60
2007,08,10,16,26,18.70
2007,08,10,16,27,18.60
2007,08,10,16,28,18.60
2007,08,10,16,29,18.60
2007,08,10,16,30,18.60
2007,08,10,16,31,18.70
2007,08,10,16,32,18.70
2007,08,10,16,33,18.70
2007,08,10,16,34,18.60
2007,08,10,16,35,18.60
2007,08,10,16,36,18.70
2007,08,10,16,37,18.70
2007,08,10,16,38,18.60
2007,08,10,16,39,18.60
2007,08,10,16,40,18.60
2007,08,10,16,41,18.70
2007,08,10,16,42,18.70
2007,08,10,16,43,18.70
2007,08,10,16,44,18.60
2007,08,10,16,45,18.60
2007,08,10,16,46,18.60
2007,08,10,16,47,18.50
2007,08,10,16,48,18.50
2007,08,10,16,49,18.40
2007,08,10,16,50,18.30
2007,08,10,16,51,18.20
2007,08,10,16,52,18.20
2007,08,10,16,53,18.20
2007,08,10,16,54,18.20
2007,08,10,16,55,18.10
2007,08,10,16,56,18.00
2007,08,10,16,57,17.90
2007,08,10,16,58,17.90
2007,08,10,16,59,17.90
2007,08,10,17,00,18.00
2007,08,10,17,01,18.00
2007,08,10,17,02,18.10
2007,08,10,17,03,18.00
2007,08,10,17,04,18.10
2007,08,10,17,05,18.00
2007,08,10,17,06,17.90
2007,08,10,17,07,17.80
2007,08,10,17,08,17.80
2007,08,10,17,09,17.70
2007,08,10,17,10,17.60
2007,08,10,17,11,17.60
2007,08,10,17,12,17.50
2007,08,10,17,13,17.50
2007,08,10,17,14,17.50
2007,08,10,17,15,17.50
2007,08,10,17,16,17.40
2007,08,10,17,17,17.40
2007,08,10,17,18,17.30
2007,08,10,17,19,17.30
2007,08,10,17,20,17.30
2007,08,10,17,21,17.20
2007,08,10,17,22,17.20
2007,08,10,17,23,17.20
2007,08,10,17,24,17.20
2007,08,10,17,25,17.20
2007,08,10,17,26,17.20
2007,08,10,17,27,17.30
2007,08,10,17,28,17.30
2007,08,10,17,29,17.20
2007,08,10,17,30,17.20
2007,08,10,17,31,17.30